Location: Newark
(41.2758°N, 92.6808°W)
Time: 05:31:41
(UTC+00:00)

Envisat - Pass Details

Date: 24 September 2019
Orbit: 764 x 766 km, 98.1° (Epoch: 16 October)

Event Time Altitude Azimuth Distance (km) Brightness Sun altitude
Rises 01:52:10 0° 220° (SW) 3,221 6.5 -20.4°
Reaches altitude 10° 01:56:18 10° 253° (WSW) 2,302 6.2 -21.1°
Maximum altitude 01:57:54 11° 272° (W) 2,207 6.4 -21.4°
Drops below altitude 10° 01:59:31 10° 290° (WNW) 2,307 6.6 -21.7°
Sets 02:03:41 0° 324° (NW) 3,240 7.2 -22.4°
